TimeEDT,TemperatureF,Dew PointF,Humidity,Sea Level PressureIn,VisibilityMPH,Wind Direction,Wind SpeedMPH,Gust SpeedMPH,PrecipitationIn,Events,Conditions,WindDirDegrees,DateUTC
12:15 AM,34.7,12.0,39,30.16,10.0,NNW,9.2,-,N/A,,Clear,330,2013-04-03 04:15:00
12:35 AM,34.7,11.7,39,30.16,10.0,NW,5.8,-,N/A,,Clear,320,2013-04-03 04:35:00
12:55 AM,34.7,11.7,39,30.16,10.0,NW,6.9,-,N/A,,Clear,320,2013-04-03 04:55:00
1:15 AM,34.3,12.2,40,30.16,10.0,NNW,4.6,-,N/A,,Clear,330,2013-04-03 05:15:00
1:35 AM,34.0,12.2,41,30.17,10.0,NNW,4.6,-,N/A,,Clear,330,2013-04-03 05:35:00
1:55 AM,34.0,12.0,40,30.17,10.0,Calm,Calm,-,N/A,,Clear,0,2013-04-03 05:55:00
2:15 AM,34.0,12.2,41,30.18,10.0,Calm,Calm,-,N/A,,Clear,0,2013-04-03 06:15:00
2:35 AM,34.0,12.2,41,30.17,10.0,Calm,Calm,-,N/A,,Clear,0,2013-04-03 06:35:00
2:55 AM,33.6,12.0,41,30.18,10.0,Calm,Calm,-,N/A,,Clear,0,2013-04-03 06:55:00
3:15 AM,33.3,11.8,41,30.17,10.0,Calm,Calm,-,N/A,,Clear,0,2013-04-03 07:15:00
3:35 AM,32.4,12.7,44,30.17,10.0,Calm,Calm,-,N/A,,Clear,0,2013-04-03 07:35:00
3:55 AM,32.0,13.1,46,30.16,10.0,North,4.6,-,N/A,,Clear,10,2013-04-03 07:55:00
4:15 AM,32.0,13.1,46,30.16,10.0,Calm,Calm,-,N/A,,Clear,0,2013-04-03 08:15:00
4:35 AM,31.5,13.5,47,30.17,10.0,Calm,Calm,-,N/A,,Clear,0,2013-04-03 08:35:00
4:55 AM,31.3,13.3,47,30.18,10.0,Calm,Calm,-,N/A,,Clear,0,2013-04-03 08:55:00
5:15 AM,31.1,13.3,48,30.19,10.0,Calm,Calm,-,N/A,,Clear,0,2013-04-03 09:15:00
5:35 AM,30.2,13.1,49,30.19,10.0,Calm,Calm,-,N/A,,Clear,0,2013-04-03 09:35:00
5:55 AM,30.2,13.1,49,30.19,10.0,NE,4.6,-,N/A,,Clear,40,2013-04-03 09:55:00
6:15 AM,29.7,13.3,51,30.18,10.0,NE,4.6,-,N/A,,Clear,40,2013-04-03 10:15:00
6:35 AM,29.3,13.3,51,30.19,10.0,ENE,3.5,-,N/A,,Clear,60,2013-04-03 10:35:00
6:55 AM,29.3,12.9,51,30.19,10.0,Calm,Calm,-,N/A,,Clear,0,2013-04-03 10:55:00
7:15 AM,29.1,13.1,51,30.19,10.0,Calm,Calm,-,N/A,,Clear,0,2013-04-03 11:15:00
7:55 AM,29.7,13.5,51,30.24,10.0,Calm,Calm,-,N/A,,Clear,0,2013-04-03 11:55:00
8:15 AM,29.7,14.2,53,30.24,10.0,Calm,Calm,-,N/A,,Clear,0,2013-04-03 12:15:00
8:35 AM,30.2,14.4,52,30.24,10.0,Calm,Calm,-,N/A,,Clear,0,2013-04-03 12:35:00
8:55 AM,31.3,14.7,50,30.25,10.0,NE,3.5,-,N/A,,Clear,40,2013-04-03 12:55:00
9:15 AM,31.6,14.9,50,30.26,10.0,ENE,4.6,-,N/A,,Clear,70,2013-04-03 13:15:00
9:35 AM,33.1,15.1,48,30.26,10.0,Calm,Calm,-,N/A,,Clear,0,2013-04-03 13:35:00
9:55 AM,32.5,14.4,47,30.26,10.0,NNE,3.5,-,N/A,,Clear,20,2013-04-03 13:55:00
10:15 AM,34.0,16.2,48,30.26,10.0,NE,3.5,-,N/A,,Clear,50,2013-04-03 14:15:00
10:35 AM,34.3,15.8,47,30.26,10.0,WNW,3.5,-,N/A,,Clear,290,2013-04-03 14:35:00
10:55 AM,36.9,16.2,43,30.27,10.0,North,4.6,-,N/A,,Clear,350,2013-04-03 14:55:00
11:15 AM,37.2,15.1,40,30.27,10.0,NW,6.9,-,N/A,,Clear,310,2013-04-03 15:15:00
11:35 AM,37.2,12.9,37,30.26,10.0,West,3.5,-,N/A,,Clear,260,2013-04-03 15:35:00
11:55 AM,37.9,12.4,35,30.25,10.0,North,6.9,-,N/A,,Clear,350,2013-04-03 15:55:00
12:15 PM,39.0,13.8,36,30.24,10.0,NW,6.9,-,N/A,,Clear,320,2013-04-03 16:15:00
12:35 PM,40.5,14.5,35,30.24,10.0,NNW,5.8,-,N/A,,Clear,340,2013-04-03 16:35:00
12:55 PM,40.3,13.8,34,30.24,10.0,NNE,6.9,17.3,N/A,,Clear,20,2013-04-03 16:55:00
1:15 PM,41.7,12.0,30,30.23,10.0,NNW,9.2,-,N/A,,Clear,330,2013-04-03 17:15:00
1:35 PM,41.5,11.3,29,30.22,10.0,WNW,8.1,16.1,N/A,,Clear,300,2013-04-03 17:35:00
1:55 PM,43.2,13.6,30,30.25,10.0,NNW,5.8,-,N/A,,Clear,330,2013-04-03 17:55:00
2:15 PM,43.2,14.2,31,30.23,10.0,NNE,6.9,-,N/A,,Clear,20,2013-04-03 18:15:00
2:35 PM,43.5,15.1,32,30.22,10.0,ENE,4.6,-,N/A,,Clear,70,2013-04-03 18:35:00
2:55 PM,45.0,13.6,28,30.23,10.0,NW,9.2,16.1,N/A,,Clear,310,2013-04-03 18:55:00
3:15 PM,45.1,13.5,28,30.23,10.0,NW,9.2,-,N/A,,Clear,320,2013-04-03 19:15:00
3:55 PM,46.0,14.2,28,30.24,10.0,NNW,10.4,-,N/A,,Clear,330,2013-04-03 19:55:00
4:15 PM,46.2,13.5,27,30.24,10.0,WNW,8.1,-,N/A,,Clear,300,2013-04-03 20:15:00
4:35 PM,46.6,13.1,26,30.24,10.0,NW,9.2,-,N/A,,Clear,320,2013-04-03 20:35:00
4:55 PM,46.4,13.1,26,30.24,10.0,North,5.8,-,N/A,,Clear,350,2013-04-03 20:55:00
5:15 PM,46.4,13.5,27,30.24,10.0,NW,10.4,-,N/A,,Clear,320,2013-04-03 21:15:00
5:35 PM,46.2,12.6,26,30.24,10.0,NW,8.1,-,N/A,,Clear,320,2013-04-03 21:35:00
5:55 PM,45.5,12.4,26,30.24,10.0,NNW,3.5,-,N/A,,Clear,340,2013-04-03 21:55:00
6:15 PM,45.0,11.5,26,30.24,10.0,NNW,10.4,16.1,N/A,,Clear,330,2013-04-03 22:15:00
6:35 PM,44.8,12.4,27,30.24,10.0,NNW,6.9,-,N/A,,Clear,330,2013-04-03 22:35:00
6:55 PM,44.1,11.1,26,30.24,10.0,North,6.9,-,N/A,,Clear,350,2013-04-03 22:55:00
7:15 PM,43.3,10.8,27,30.24,10.0,NNW,4.6,-,N/A,,Clear,340,2013-04-03 23:15:00
7:35 PM,42.4,9.1,26,30.24,10.0,North,3.5,-,N/A,,Clear,360,2013-04-03 23:35:00
7:55 PM,41.9,9.1,26,30.24,10.0,Calm,Calm,-,N/A,,Clear,0,2013-04-03 23:55:00
8:15 PM,41.4,9.1,27,30.22,10.0,North,3.5,-,N/A,,Clear,10,2013-04-04 00:15:00
8:35 PM,41.0,9.1,27,30.23,10.0,North,4.6,-,N/A,,Clear,10,2013-04-04 00:35:00
9:15 PM,40.1,8.6,27,30.24,10.0,NNE,4.6,-,N/A,,Clear,20,2013-04-04 01:15:00
9:35 PM,39.7,9.1,28,30.24,10.0,NNE,4.6,-,N/A,,Clear,30,2013-04-04 01:35:00
9:55 PM,39.6,8.6,28,30.25,10.0,NE,5.8,-,N/A,,Clear,50,2013-04-04 01:55:00
10:15 PM,39.0,9.3,29,30.26,10.0,NE,4.6,-,N/A,,Clear,50,2013-04-04 02:15:00
10:35 PM,39.0,9.3,29,30.27,10.0,ENE,4.6,-,N/A,,Clear,60,2013-04-04 02:35:00
11:15 PM,38.3,9.5,31,30.27,10.0,ENE,5.8,-,N/A,,Clear,70,2013-04-04 03:15:00
11:35 PM,38.3,9.3,30,30.26,10.0,NE,5.8,-,N/A,,Clear,50,2013-04-04 03:35:00
11:55 PM,37.8,10.0,32,30.26,10.0,ENE,6.9,-,N/A,,Clear,60,2013-04-04 03:55:00